Location: Long Island Community Building
(39.9491°N, 99.5338°W)
Time: 19:31:00
(UTC+00:00)

PSLV R/B - Pass Details

Date: 06 December 2019
Orbit: 504 x 580 km, 97.8° (Epoch: 24 January)

Event Time Altitude Azimuth Distance (km) Brightness Sun altitude
Rises 12:05:37 0° 5° (N) 2,782 7.3 -18.5°
Reaches altitude 10° 12:07:49 10° 359° (N) 1,888 6.4 -18.1°
Maximum altitude 12:11:44 45° 287° (WNW) 794 4.1 -17.4°
Drops below altitude 10° 12:15:39 10° 215° (SW) 1,890 6.4 -16.7°
Sets 12:17:51 0° 209° (SSW) 2,785 7.3 -16.3°
